Weather in Devyaterikovka

Russia / Omsk Oblast     55°15′02″N   73°49′33″E
temp.,
°C
wind,
m/s
gust,
m/s
humid.,
%
clouds,
%
prec.,
mm/h
press.,
hPa
HPBL,
m
13 may, thu
thu1300:00+10nnw41158100 0.0 1021248
03:00+9nnw4950100 0.0 1021246
06:00+7nnw385528 0.0 1022188
09:00+10nnw4845100 0.0 1023422
12:00+11wnw3648100 0.0 1021503
15:00+10wsw247088 0.4 1021330
18:00+16nnw235627 0.4 1019600
21:00+11ne3679100 0.0 1021122
14 may, fri
fri1400:00+9n228862 0.0 102217
03:00+8nnw339130 0.0 102442
06:00+7nne37921 0.0 1026161
09:00+12nne45615 0.0 1027642
12:00+16nnw44335 0.0 10271065
15:00+19nw342814 0.0 10261372
18:00+20wnw453011 0.0 10251271
21:00+16sw33495 0.0 102532
15 may, sat
sat1500:00+15sw4951100 0.0 1023146
03:00+14wsw51465100 1.6 1022250
06:00+14sw61666100 2.2 1021340
09:00+20w6105147 0.0 1021415
12:00+27w793824 0.1 10191113
15:00+28wnw710315 0.0 10182553
18:00+28wnw693177 0.0 10172655
21:00+22wsw4104756 0.0 1016129
16 may, sun
sun1600:00+19nnw41066100 0.8 1017265
03:00+15nnw227893 0.5 101617
06:00+15w367816 0.5 1017115
09:00+21wnw455670 0.0 1018452
12:00+24nw3343100 0.0 10181131
15:00+26wnw34375 0.0 10172005
18:00+27nw463442 0.0 10172427
21:00+22wnw225294 0.0 101711
17 may, mon
mon1700:00+20wsw3356100 0.0 101636
03:00+19sw485899 0.1 1016110
06:00+18wsw4116542 0.1 1017194
09:00+24w574654 0.0 1016321
12:00+30w68295 0.0 10151522
15:00+31w79235 0.0 10133695
18:00+30w69285 0.0 10113007
21:00+19nnw51059100 0.0 1012244